www.pogodaiklimat.ru

Погода и климат >> Архив погоды >> Россия >> Магаданская область >> Мыс Алевина


ПОГОДА на Мысе Алевина

  • Прогноз погоды на Мысе Алевина
  • Монитор погоды на Мысе Алевина
  • Климат города

АРХИВ ПОГОДЫ на Мысе Алевина

Время (UTC), дата Ветер
(напр.,м/с)
 
Видим.   Явления Облачность Т
(С)
Тd
(С)
f
(%)
Тe
(С)
Тes
(С)
Комфортность P
(гПа)
Po
(гПа)
Тmin
(С)
Tmax
(С)
R
(мм)
R24
(мм)
S
(см)
18 16.10 СВ 3 50 км 10/10 1000 м
[Sc]
-2.4 -10.2 55 -7 -7 1006.6 998.4
21 16.10 СВ 4 50 км 9/9 1000 м
[Sc]
-1.8 -10.1 53 -7 -7 1007.3 999.1 -4.0
00 17.10 СВ 2 50 км 10/10 1000 м
[Sc]
+0.2 -10.1 46 -3 -3 1008.2 1000.0
03 17.10 В 4 50 км 10/10 1000 м
[Sc]
+1.3 -7.9 50 -3 -3 1008.7 1000.6
06 17.10 СЗ 2 50 км 10/10 1000 м
[Sc]
+1.0 -8.8 48 -2 -2 1009.8 1001.7
09 17.10 СВ 1 50 км ясно +0.2 -6.5 61 -1 -1 1011.4 1003.2 +1.4
12 17.10 СВ 4 50 км 10/10 1000 м
[Sc]
-1.0 -8.0 59 -6 -6 1012.5 1004.4
15 17.10 СВ 3 50 км 10/10 1000 м
[Sc]
-0.6 -7.4 60 -5 -5 1013.5 1005.2
18 17.10 С 2 50 км 4/4 1000 м
[Sc]
-1.7 -7.8 63 -5 -5 1014.1 1005.8
21 17.10 СВ 4 50 км 10/0
[As trans]
-2.4 -9.2 60 -8 -8 1015.8 1007.5 -2.7
00 18.10 В 4 50 км 8/0
[Ac trans Ci fib]
+1.8 -9.0 45 -2 -2 1016.9 1008.7
03 18.10 ЮВ 8-10
{11}
50 км 8/0
[Ci fib]
+3.6 -5.3 52 -2 -2 1017.4 1009.3
06 18.10 В 8-10
{12}
50 км 10/3 1000 м
[Sc As trans]
+2.2 -5.3 58 -4 -4 1018.5 1010.3
09 18.10 СВ 4
{10}
50 км 3/3 1000 м
[Sc]
-0.4 -8.6 54 -5 -5 1019.9 1011.6 +3.8
12 18.10 СВ 4 50 км ясно -1.4 -9.0 56 -7 -7 1020.6 1012.4
15 18.10 СВ 4 50 км ясно -3.2 -8.8 65 -9 -9 1021.5 1013.1
18 18.10 СВ 5 50 км 3/3 1000 м
[Sc]
-2.0 -8.6 61 -8 -8 1021.3 1013.0
21 18.10 СВ 6 50 км ясно -2.9 -9.1 62 -10 -10 1021.8 1013.5 -3.6
00 19.10 С 1 50 км 6/6 1000 м
[Sc]
+2.0 -8.2 47 +1 +2 1021.6 1013.4
03 19.10 СЗ 5 50 км 3/3 1000 м
[Sc]
+3.0 -7.0 48 -2 -1 1021.2 1013.1
06 19.10 СЗ 5 50 км 3/3 1000 м
[Sc]
+2.0 -7.3 50 -3 -3 1021.0 1012.8
09 19.10 СВ 5 50 км ясно -1.0 -9.3 53 -7 -7 1021.8 1013.5 +3.1
12 19.10 СВ 4 50 км ясно -2.9 -9.3 61 -9 -9 1022.7 1014.4
15 19.10 СВ 4 50 км ясно -3.3 -8.1 69 -9 -9 1023.3 1014.9
18 19.10 СВ 2 50 км 6/6 1000 м
[Sc]
-1.6 -7.2 66 -5 -5 1024.0 1015.6
21 19.10 С 2 50 км 8/8 1000 м
[Sc]
-1.4 -7.3 64 -5 -5 1024.6 1016.2 -3.4
00 20.10 СЗ 2 50 км 6/6 1000 м
[Sc]
-0.6 -6.2 66 -4 -3 1025.5 1017.2
03 20.10 СЗ 4 50 км ясно +1.4 -7.3 52 -3 -2 1025.7 1017.4
06 20.10 СЗ 2 50 км ясно +0.8 -7.3 55 -2 -2 1026.9 1018.6
09 20.10 В 4 50 км ясно -2.0 -7.4 67 -8 -8 1027.8 1019.4 +1.5
12 20.10 СВ 4 50 км ясно -3.7 -8.7 68 -10 -10 1027.9 1019.4
15 20.10 СВ 4 50 км ясно -4.3 -9.0 70 -10 -10 1029.5 1021.0
18 20.10 СВ 3 50 км ясно -4.1 -8.3 73 -9 -9 1030.5 1022.0
21 20.10 СВ 5 50 км ясно -4.3 -7.7 77 -11 -11 1030.9 1022.4 -4.6
00 21.10 В 2 50 км ясно +1.2 -4.7 65 -2 -0 1031.6 1023.3
03 21.10 ЮВ 4 50 км ясно +1.8 -4.7 62 -3 -1 1031.5 1023.2
06 21.10 ЮВ 5 50 км ясно +0.9 -3.7 71 -5 -5 1032.3 1024.0
09 21.10 В 6 50 км ясно -0.6 -3.4 81 -7 -7 1032.6 1024.3 +1.9
12 21.10 В 6 50 км ясно -0.7 -4.5 75 -7 -7 1032.4 1024.1
15 21.10 В 6 50 км ясно -0.6 -4.7 74 -7 -7 1031.6 1023.3
18 21.10 В 8-11
{11}
50 км ясно +0.2 -3.8 74 -7 -7 1030.5 1022.2
21 21.10 В 11-15
{15}
50 км 3/3 1000 м
[Sc]
+0.3 -4.4 71 -8 -8 1029.0 1020.7 -0.7
00 22.10 В 14-18
{18}
50 км 10/10 1000 м
[Sc]
+1.6 -3.5 69 -7 -7 1026.9 1018.6
03 22.10 В 14-20
{21}
50 км 10/10 1000 м
[Sc]
+2.3 -1.7 75 -6 -6 1026.9 1016.5
06 22.10 В 17-24
{24}
50 км 10/10 600 м
[Cb cap]
+2.2 -1.2 78 -7 -7 1021.7 1013.5
09 22.10 В 19-27
{27}
50 км 10/10 1000 м
[Sc]
+1.8 -1.3 80 -8 -8 1017.0 1008.8 +2.4
06 23.10 В 23-31
{32}
50 км 10/10 1000 м
[Sc]
+0.8 -0.9 88 -10 -10 1011.9 1003.8

 

Местоположение метеостанции Мыс Алевина (Магаданская область, Россия): широта 58.83 долгота 151.30 высота над уровнем моря 65 м.

В архиве по умолчанию представлена погода на Мысе Алевина за последнюю неделю. Архивные данные за месяц целиком и за предыдущие месяцы, начиная с января 2011 года, Вы можете получить, выбрав интересующий диапазон дат из раскрывающегося списка и нажав кнопку "Ввод!".

Внимание! Время в таблицах - всемирное. Для получения местного времени необходимо прибавить поправку, которая на Мысе Алевина равна 11 ч.

Смотрите также архив погоды в соседних городах и на ближайших метеорологических станциях:

Погода в Оле (Магаданская область, Россия) (81 км)
Погода в Магадане (Магаданская область, Россия) (87 км)
Погода в Армани (Магаданская область, Россия) (115 км)
Погода на Мысе Братьев (Магаданская область, Россия) (119 км)
Погода на Остров Спафарьева (Магаданская область, Россия) (137 км)
Погода в Палатке (Магаданская область, Россия) (143 км)
Погода в Талоне (Магаданская область, Россия) (185 км)
Погода в Брохово (Магаданская область, Россия) (188 км)
Погода в Мадауне (Магаданская область, Россия) (200 км)
Погода в Талае (Магаданская область, Россия) (262 км)

Пояснения к столбцам:

Ветер - указаны скорость ветра в м/с - средняя за 10 мин, порывы в срок и между сроками (в фигурных скобках) и направление, откуда дует ветер: С - северный, СВ - северо-восточный, В - восточный, ЮВ - юго-восточный, Ю - южный, ЮЗ - юго-западный, З - западный, СЗ - северо-западный.
Видимость - горизонтальная дальность видимости в метрах или километрах. При видимости от 1 до 10 км при отсутствии осадков обычно наблюдается дымка, при ухудшении видимости до 1 км и менее - туман. В сухую погоду видимость может ухудшаться дымом, пылью или мглою.
Явления - указаны атмосферные явления, наблюдавшиеся в срок или в последний час перед сроком; фигурными скобками обозначены явления, наблюдавшиеся между сроками (за 1-3 часа до срока); квадратными скобками обозначены град или гололедные отложения с указанием их диаметра в мм.
Облачность - указаны через наклонную черту общая и нижняя облачность в баллах и высота нижней границы облаков в метрах; квадратными скобками обозначены формы облаков: Ci - перистые, Cs - перисто-слоистые, Cc - перисто-кучевые, Ac - высококучевые, As - высокослоистые, Sc - слоисто-кучевые, Ns - слоисто-дождевые, Cu - кучевые, Cb - кучево-дождевые. Подробнее классификацию облаков см. в Атласе облаков (PDF).
T - Температура воздуха - температура, измеренная на высоте 2 м над землей.
Td - Температура точки росы - температура, при понижении до которой содержащийся в воздухе водяной пар достигнет насыщения.
f - Относительная влажность воздуха - влажноcть воздуха, измеренная на высоте 2 м над землей.
Te - Эффективная температура - температура, которую ощущает одетый по сезону человек в тени. Характеристика душности погоды. При расчете учитывается влияние влажности воздуха и скорости ветра на теплоощущения человека.
Tes - Эффективная температура на солнце - температура, которую ощущает человек, с поправкой на солнечный нагрев. Характеристика знойности погоды. Зависит от высоты солнца над горизонтом, облачности и скорости ветра. Ночью, в пасмурную погоду, а также при ветре 12 м/с и более поправка равна нулю.
P - Атмосферное давление - приведенное к уровню моря атмосферное давление.
Po - Атмосферное давление - измеренное на уровне метеостанции атмосферное давление.
Tmin - Минимальная температура - минимум температуры воздуха на высоте 2 м над землей.
Tmax - Максимальная температура - максимум температуры воздуха на высоте 2 м над землей.
R - Количество осадков - Количество выпавших осадков за период времени, мм. При наведении курсора мыши на число - период времени, за который выпало указанное количество осадков.
R24 - Количество осадков - Количество выпавших осадков за 24 часа, мм.
S - Снежный покров - Высота снежного покрова, см. При наведении курсора мыши на число - состояние снежного покрова и степень покрытия местности в баллах.